TimeHST,TemperatureF,Dew PointF,Humidity,Sea Level PressureIn,VisibilityMPH,Wind Direction,Wind SpeedMPH,Gust SpeedMPH,PrecipitationIn,Events,Conditions,WindDirDegrees,DateUTC
12:53 AM,64.0,60.1,87,29.88,10.0,WNW,6.9,-,N/A,,Clear,290,2012-01-13 10:53:00
1:53 AM,64.0,60.1,87,29.88,10.0,WNW,6.9,-,N/A,,Clear,290,2012-01-13 11:53:00
2:53 AM,62.1,57.9,86,29.86,10.0,West,8.1,-,N/A,,Clear,260,2012-01-13 12:53:00
3:53 AM,62.1,59.0,90,29.85,10.0,West,6.9,-,N/A,,Clear,270,2012-01-13 13:53:00
4:53 AM,63.0,57.9,84,29.85,10.0,West,9.2,-,N/A,,Clear,280,2012-01-13 14:53:00
5:53 AM,62.1,59.0,90,29.86,10.0,WNW,6.9,-,N/A,,Clear,290,2012-01-13 15:53:00
6:11 AM,60.8,57.2,88,29.86,10.0,WSW,10.4,-,N/A,,Clear,250,2012-01-13 16:11:00
6:53 AM,62.1,59.0,90,29.87,10.0,West,6.9,-,N/A,,Clear,270,2012-01-13 16:53:00
7:53 AM,63.0,60.1,90,29.88,10.0,West,5.8,-,N/A,,Partly Cloudy,270,2012-01-13 17:53:00
8:53 AM,69.1,63.0,81,29.90,10.0,WSW,5.8,-,N/A,,Clear,240,2012-01-13 18:53:00
9:53 AM,73.9,63.0,68,29.91,10.0,South,4.6,-,N/A,,Clear,190,2012-01-13 19:53:00
10:53 AM,78.1,57.0,48,29.91,10.0,SW,15.0,-,N/A,,Clear,220,2012-01-13 20:53:00
11:53 AM,80.1,55.9,43,29.88,10.0,West,10.4,17.3,N/A,,Partly Cloudy,270,2012-01-13 21:53:00
12:12 PM,78.8,57.2,47,29.88,10.0,NE,8.1,-,N/A,,Scattered Clouds,50,2012-01-13 22:12:00
12:53 PM,79.0,60.1,52,29.86,10.0,NE,10.4,-,N/A,,Clear,50,2012-01-13 22:53:00
1:53 PM,78.1,59.0,52,29.84,10.0,NE,8.1,-,N/A,,Clear,50,2012-01-13 23:53:00
2:53 PM,75.9,59.0,56,29.83,10.0,East,9.2,-,N/A,,Clear,80,2012-01-14 00:53:00
3:53 PM,80.1,50.0,35,29.82,10.0,SW,18.4,23.0,N/A,,Clear,230,2012-01-14 01:53:00
4:53 PM,78.1,48.0,35,29.83,10.0,SW,12.7,20.7,N/A,,Clear,220,2012-01-14 02:53:00
5:53 PM,73.0,55.9,55,29.85,10.0,North,11.5,-,N/A,,Clear,10,2012-01-14 03:53:00
6:53 PM,70.0,55.0,59,29.88,10.0,Calm,Calm,-,N/A,,Clear,0,2012-01-14 04:53:00
7:53 PM,68.0,55.0,63,29.88,10.0,South,3.5,-,N/A,,Clear,170,2012-01-14 05:53:00
8:53 PM,64.0,55.0,73,29.89,10.0,West,5.8,-,N/A,,Clear,270,2012-01-14 06:53:00
9:53 PM,62.1,54.0,75,29.89,10.0,West,8.1,-,N/A,,Clear,280,2012-01-14 07:53:00
10:53 PM,60.1,54.0,80,29.89,10.0,WSW,9.2,-,N/A,,Clear,250,2012-01-14 08:53:00
11:53 PM,61.0,53.1,75,29.88,10.0,West,5.8,-,N/A,,Clear,270,2012-01-14 09:53:00